Aérodrome :
LOGIN :

S'inscrire | Disclaimer

   EN    FR    IT 

 










Légende :    VFR   VFR Marginal   IFR   IFR Intensif   IFR Très Intensif
Visi : 
Plafond : 
>= 8 km
>= 3000ft
5 à 8 km
1000 à 3000 ft
1500m à 5 km
500 à 1000 ft
800 à 1500m
200 à 500 ft
< 800m
< 200 ft
Symboles :   Orages  Brouillard  Fortes neiges  Fortes précipitations  Vent > 20 kt
SIGMETs :   Divers  Orages  Givrage  Turbulence  Onde Orograph.  Cendres Volcan.






- Altitude de l'aérodrome : 352 ft
- Code IATA : ARW


LRAR - Arad International

DERNIER METAR :
  • 040400Z 14009KT CAVOK 06/00 Q1007

METARs EXPIRÉS :
  • 040330Z 14008KT CAVOK 05/00 Q1007
  • 040300Z 14008KT CAVOK 05/00 Q1008
  • 040230Z 14010KT CAVOK 05/00 Q1008
  • 040200Z 14008KT CAVOK 05/00 Q1008
  • 040130Z 14008KT CAVOK 05/00 Q1008

TAF TAF LRAR
Valide du 04 à 03h jusqu'au 04 à 12h UTC


040200Z 0403/0412 14010KT CAVOK



MET'MAP, la Météo Aéronautique d'un coup d'oeil ! - Copyright ORBIFLY Décembre 2007 - Disclaimer

ORBIFLY MET'MAP TEAM :

Programmation & Développement : Alexandra Zaïnal
Sur une idée originale de : Baudouin d'Aumeries
Assistance à la programmation : Marc-Olivier Méhu
Soutien technique & logistique : Manuel Goepfert

Contact : metmap@orbifly.com




SOURCES & CREDITS :

   NOAA